Location: Amsterdam
(30.7274°N, 84.4357°W)
Time: 20:32:51
(UTC+00:00)

Altair - Pass Details

Date: 10 August 2024
Orbit: 1501 x 1682 km, 47.2° (Epoch: 07 September)

Event Time Altitude Azimuth Distance (km) Brightness Sun altitude
Rises 03:19:40 0° 287° (WNW) 4,651 10.8 -32.4°
Reaches altitude 10° 03:24:57 10° 262° (W) 3,650 9.8 -33.1°
Maximum altitude 03:28:41 13° 237° (WSW) 3,400 9.3 -33.7°
Enters shadow 03:31:35 11° 218° (SW) 3,547 9.3 -34.0°
Drops below altitude 10° 03:32:26 10° 212° (SSW) 3,643 - -34.2°
Sets 03:37:45 0° 187° (S) 4,634 - -34.9°
